This is the latest recevied weather packets stored in our database for station/object KO4LFZ. If no packets are shown the sender has not sent any weather packets the latest 10 day(s).
| Time | Temp. | Humidity | Pressure | Rain* | Wind** | Luminosity | Snow |
|---|---|---|---|---|---|---|---|
| 1777505554 | 18.89° C | 67% | 1013.6 hPa | 0 mm | - | 61 W/m² | - |
| 1777505250 | 18.89° C | 64% | 1013.6 hPa | 0 mm | - | 58 W/m² | - |
| 1777504947 | 18.89° C | 63% | 1013.6 hPa | 0 mm | - | 63 W/m² | - |
| 1777504644 | 19.44° C | 61% | 1013.6 hPa | 0 mm | - | 114 W/m² | - |
| 1777504341 | 19.44° C | 61% | 1013.5 hPa | 0 mm | - | 95 W/m² | - |
| 1777504035 | 20° C | 60% | 1013.3 hPa | 0 mm | - | 128 W/m² | - |
| 1777503733 | 20° C | 60% | 1013.5 hPa | 0 mm | - | 104 W/m² | - |
| 1777503429 | 20° C | 61% | 1013.3 hPa | 0 mm | - | 172 W/m² | - |
| 1777503125 | 20° C | 60% | 1013.2 hPa | 0 mm | - | 196 W/m² | - |
| 1777502823 | 20° C | 62% | 1013.3 hPa | 0 mm | - | 223 W/m² | - |
| 1777502520 | 19.44° C | 62% | 1013.3 hPa | 0 mm | - | 236 W/m² | - |
| 1777502216 | 19.44° C | 63% | 1013.4 hPa | 0 mm | - | 144 W/m² | - |
| 1777501914 | 20° C | 61% | 1013.3 hPa | 0 mm | - | 105 W/m² | - |
| 1777501611 | 20.56° C | 59% | 1013.4 hPa | 0 mm | - | 269 W/m² | - |
| 1777501307 | 20.56° C | 59% | 1013.4 hPa | 0 mm | - | 290 W/m² | - |
| 1777501005 | 20.56° C | 58% | 1013.3 hPa | 0 mm | - | 260 W/m² | - |
| 1777500703 | 20.56° C | 57% | 1013.4 hPa | 0 mm | - | 311 W/m² | - |
| 1777500399 | 20° C | 59% | 1013.6 hPa | 0 mm | - | 307 W/m² | - |
| 1777500095 | 20.56° C | 62% | 1013.5 hPa | 0 mm | - | 300 W/m² | - |
| 1777499793 | 20.56° C | 62% | 1013.7 hPa | 0 mm | - | 311 W/m² | - |
| 1777499488 | 20.56° C | 61% | 1013.7 hPa | 0 mm | - | 339 W/m² | - |
| 1777499170 | 20.56° C | 62% | 1014 hPa | 0 mm | - | 420 W/m² | - |
| 1777498866 | 20.56° C | 62% | 1014 hPa | 0 mm | - | 420 W/m² | - |
| 1777498563 | 20.56° C | 62% | 1013.6 hPa | 0 mm | - | 418 W/m² | - |
| 1777498259 | 20.56° C | 62% | 1013.7 hPa | 0 mm | - | 418 W/m² | - |
* Rain latest hour (hover to see other rain measurements)
** Current wind speed in m/s (hover to see current wind gust speed)